Location: *
(48.8667°N, 2.3331°E)
Time: 08:35:43
(UTC+00:00)

Cosmos 2061 Rocket - Pass Details

Date: 16 August 2020
Orbit: 966 x 1012 km, 82.9° (Epoch: 23 September)

Event Time Altitude Azimuth Distance (km) Brightness Sun altitude
Exits shadow 23:04:45 16° 243° (WSW) 2,277 5.8 -26.8°
Maximum altitude 23:08:35 29° 293° (WNW) 1,688 5.5 -27.0°
Drops below altitude 10° 23:13:56 10° 352° (N) 2,721 7.3 -27.1°
Sets 23:16:50 0° 4° (N) 3,675 8.2 -27.2°
